Flag for Guatemala Weather past 2 weeks in Escuintla, Guatemala

Now
64 °F

Partly cloudy.


Feels Like: 64 °F
Forecast: 71 / 94 °F
Wind: 12 mph from North

Location: Guatemala Aeropuertola Aurora

Current Time: Aug 2, 2015 at 2:42:22 AM

Latest Report: Aug 2, 2015 at 2:00 AM


Visibility: N/A

Pressure: 30.24 "Hg

Humidity: 88%

Dew point: 61 °F

Location of EscuintlaLocation

Historic Weather in Escuintla — Graph

°F

Escuintla temperature yesterday

Maximum temperature yesterday: 79 °F (at 2:00 PM)
Minimum temperature yesterday: 61 °F (at 4:00 AM)
Average temperature yesterday: 69 °F

Past Weeks' High & Low Weather Summary

 TemperatureHumidityPressure
High81 °F (Jul 23, 2:00 PM)100% (Jul 18, 3:00 AM)30.39 "Hg (Jul 18, 3:00 AM)
Low61 °F (Jul 19, 3:00 AM)37% (Jul 31, 2:00 PM)30.18 "Hg (Jul 19, 2:00 AM)
Average69 °F76%30.29 "Hg
* Reported Jul 18 1:00 AM — Aug 2 1:00 AM, Escuintla, Weather by CustomWeather, © 2015

Note: Actual official high and low records may vary slightly from our data, if they occured in-between our weather recording intervals... More about our weather records

Advertising

Escuintla weather history for previous 24 hours

 ConditionsComfort  
Time TempWeatherWind HumidityBarometerVisibility
1:00 AM
Sun, Aug 2
66 °FPassing clouds.18 mph83%30.27 "HgN/A
12:00 AM64 °FPassing clouds.14 mph88%30.27 "HgN/A
11:00 PM
Sat, Aug 1
66 °FPassing clouds.14 mph83%30.27 "HgN/A
10:00 PM66 °FPartly cloudy.12 mph83%30.27 "HgN/A
9:00 PM68 °FPassing clouds.12 mph73%30.24 "HgN/A
8:00 PM70 °FClear.14 mph69%30.24 "Hg10 mi
7:00 PM72 °FPartly cloudy.12 mph65%30.21 "HgN/A
6:00 PM75 °FBroken clouds.12 mph57%30.21 "HgN/A
5:00 PM75 °FBroken clouds.14 mph54%30.18 "HgN/A
4:00 PM79 °FBroken clouds.12 mph51%30.21 "HgN/A
3:00 PM77 °FBroken clouds.16 mph51%30.24 "HgN/A
2:00 PM79 °FBroken clouds.16 mph51%30.24 "HgN/A
1:00 PM75 °FScattered clouds.9 mph57%30.27 "HgN/A
12:00 PM77 °FScattered clouds.12 mph54%30.27 "HgN/A
11:00 AM72 °FScattered clouds.12 mph65%30.30 "HgN/A
10:00 AM72 °FScattered clouds.14 mph61%30.30 "HgN/A
9:00 AM68 °FBroken clouds.14 mph73%30.30 "HgN/A
8:00 AM66 °FOvercast.12 mph78%30.27 "HgN/A
7:00 AM64 °FOvercast.9 mph83%30.27 "HgN/A
6:00 AM63 °FPartly sunny.9 mph88%30.24 "HgN/A
5:00 AM61 °FPassing clouds.9 mph88%30.24 "HgN/A
4:00 AM61 °FPassing clouds.14 mph94%30.27 "HgN/A
3:00 AM63 °FPassing clouds.12 mph94%30.27 "HgN/A
2:00 AM63 °FOvercast.12 mph94%30.30 "HgN/A
Weather by CustomWeather, © 2015

See weather overviewHow to use our weather pages